Time,TemperatureF,DewpointF,PressureIn,WindDirection,WindDirectionDegrees,WindSpeedMPH,WindSpeedGustMPH,Humidity,HourlyPrecipIn,Conditions,Clouds,dailyrainin,SoftwareType,DateUTC
2013-09-09 00:14:00,47.0,43.0,30.08,North,0,0.0,0.0,85,0.00,,,0.01,,2013-09-09 04:14:00,
2013-09-09 00:24:00,46.0,42.0,30.09,West,280,0.0,1.0,86,0.00,,,0.01,,2013-09-09 04:24:00,
2013-09-09 00:43:00,46.0,42.0,30.09,North,0,0.0,0.0,87,0.00,,,0.01,,2013-09-09 04:43:00,
2013-09-09 00:54:00,45.0,41.0,30.09,North,0,0.0,0.0,87,0.00,,,0.01,,2013-09-09 04:54:00,
2013-09-09 01:13:00,45.0,42.0,30.09,North,0,0.0,0.0,88,0.00,,,0.01,,2013-09-09 05:13:00,
2013-09-09 01:23:00,45.0,42.0,30.09,North,0,0.0,0.0,88,0.00,,,0.01,,2013-09-09 05:23:00,
2013-09-09 01:43:00,44.0,41.0,30.10,North,0,0.0,0.0,88,0.00,,,0.01,,2013-09-09 05:43:00,
2013-09-09 01:53:00,44.0,41.0,30.10,North,0,0.0,0.0,88,0.00,,,0.01,,2013-09-09 05:53:00,
2013-09-09 02:12:00,43.0,40.0,30.11,North,0,0.0,0.0,89,0.00,,,0.01,,2013-09-09 06:12:00,
2013-09-09 02:22:00,43.0,40.0,30.11,North,0,0.0,0.0,89,0.00,,,0.01,,2013-09-09 06:22:00,
2013-09-09 02:42:00,43.0,40.0,30.11,North,0,0.0,0.0,90,0.00,,,0.01,,2013-09-09 06:42:00,
2013-09-09 02:52:00,43.0,40.0,30.11,North,0,0.0,0.0,90,0.00,,,0.01,,2013-09-09 06:52:00,
2013-09-09 03:11:00,42.0,39.0,30.12,North,0,0.0,0.0,90,0.00,,,0.01,,2013-09-09 07:11:00,
2013-09-09 03:22:00,42.0,39.0,30.12,North,0,0.0,0.0,90,0.00,,,0.01,,2013-09-09 07:22:00,
2013-09-09 03:43:00,41.0,38.0,30.13,North,0,0.0,0.0,90,0.00,,,0.01,,2013-09-09 07:43:00,
2013-09-09 03:52:00,41.0,38.0,30.12,North,0,0.0,0.0,90,0.00,,,0.01,,2013-09-09 07:52:00,
2013-09-09 04:12:00,40.0,37.0,30.13,North,0,0.0,0.0,90,0.00,,,0.01,,2013-09-09 08:12:00,
2013-09-09 04:22:00,40.0,37.0,30.13,North,0,0.0,0.0,90,0.00,,,0.01,,2013-09-09 08:22:00,
2013-09-09 04:52:00,40.0,37.0,30.15,North,0,0.0,0.0,90,0.00,,,0.01,,2013-09-09 08:52:00,
2013-09-09 05:02:00,40.0,37.0,30.15,North,0,0.0,0.0,90,0.00,,,0.01,,2013-09-09 09:02:00,
2013-09-09 05:12:00,40.0,37.0,30.15,North,0,0.0,0.0,90,0.00,,,0.01,,2013-09-09 09:12:00,
2013-09-09 05:20:00,39.0,37.0,30.16,North,0,0.0,0.0,91,0.00,,,0.01,,2013-09-09 09:20:00,
2013-09-09 05:22:00,39.0,37.0,30.16,North,0,0.0,0.0,91,0.00,,,0.01,,2013-09-09 09:22:00,
2013-09-09 05:43:00,39.0,37.0,30.16,North,0,0.0,0.0,91,0.00,,,0.01,,2013-09-09 09:43:00,
2013-09-09 05:54:00,39.0,37.0,30.16,North,0,0.0,0.0,91,0.00,,,0.01,,2013-09-09 09:54:00,
2013-09-09 06:03:00,39.0,37.0,30.16,North,0,0.0,0.0,91,0.00,,,0.01,,2013-09-09 10:03:00,
2013-09-09 06:12:00,39.0,37.0,30.16,North,0,0.0,0.0,91,0.00,,,0.01,,2013-09-09 10:12:00,
2013-09-09 06:43:00,38.0,36.0,30.19,North,0,0.0,0.0,91,0.00,,,0.01,,2013-09-09 10:43:00,
2013-09-09 06:53:00,38.0,36.0,30.19,North,0,0.0,0.0,91,0.00,,,0.01,,2013-09-09 10:53:00,
2013-09-09 07:12:00,38.0,36.0,30.20,North,0,0.0,0.0,91,0.00,,,0.01,,2013-09-09 11:12:00,
2013-09-09 07:22:00,38.0,36.0,30.20,North,0,0.0,0.0,91,0.00,,,0.01,,2013-09-09 11:22:00,
2013-09-09 07:52:00,38.0,36.0,30.21,North,0,0.0,0.0,91,0.00,,,0.01,,2013-09-09 11:52:00,
2013-09-09 08:12:00,40.0,38.0,30.22,West,280,0.0,1.0,92,0.00,,,0.01,,2013-09-09 12:12:00,
2013-09-09 08:22:00,41.0,39.0,30.22,North,0,0.0,0.0,92,0.00,,,0.01,,2013-09-09 12:22:00,
2013-09-09 08:42:00,42.0,40.0,30.22,West,280,0.0,1.0,92,0.00,,,0.01,,2013-09-09 12:42:00,
2013-09-09 08:52:00,45.0,43.0,30.22,West,281,0.0,1.0,92,0.00,,,0.01,,2013-09-09 12:52:00,
2013-09-09 09:11:00,47.0,45.0,30.23,West,280,0.0,1.0,92,0.00,,,0.01,,2013-09-09 13:11:00,
2013-09-09 09:22:00,48.0,46.0,30.22,West,281,0.0,2.0,92,0.00,,,0.01,,2013-09-09 13:22:00,
2013-09-09 09:42:00,50.0,48.0,30.23,West,281,0.0,2.0,92,0.00,,,0.01,,2013-09-09 13:42:00,
2013-09-09 09:52:00,52.0,49.0,30.22,West,281,0.0,2.0,88,0.00,,,0.00,,2013-09-09 13:52:00,
2013-09-09 10:02:00,52.0,49.0,30.22,West,281,0.0,2.0,88,0.00,,,0.00,,2013-09-09 14:02:00,
2013-09-09 10:12:00,52.0,49.0,30.22,West,281,0.0,2.0,88,0.00,,,0.00,,2013-09-09 14:12:00,
2013-09-09 10:22:00,61.0,47.0,30.22,SSE,158,0.0,3.0,59,0.00,,,0.00,,2013-09-09 14:22:00,
2013-09-09 10:42:00,62.0,49.0,30.21,South,174,0.0,4.0,63,0.00,,,0.00,,2013-09-09 14:42:00,
2013-09-09 10:52:00,63.0,46.0,30.21,SSW,207,0.0,6.0,54,0.00,,,0.00,,2013-09-09 14:52:00,
2013-09-09 11:11:00,63.0,50.0,30.21,SW,234,1.0,6.0,62,0.00,,,0.00,,2013-09-09 15:11:00,
2013-09-09 11:22:00,63.0,50.0,30.21,SW,234,1.0,6.0,62,0.00,,,0.00,,2013-09-09 15:22:00,
2013-09-09 11:43:00,65.0,50.0,30.21,WSW,248,2.0,6.0,59,0.00,,,0.00,,2013-09-09 15:43:00,
2013-09-09 11:53:00,65.0,50.0,30.21,WSW,248,2.0,6.0,59,0.00,,,0.00,,2013-09-09 15:53:00,
2013-09-09 12:13:00,67.0,45.0,30.19,WSW,251,2.0,6.0,45,0.00,,,0.00,,2013-09-09 16:13:00,
2013-09-09 12:25:00,67.0,45.0,30.19,WSW,251,2.0,6.0,45,0.00,,,0.00,,2013-09-09 16:25:00,
2013-09-09 12:43:00,67.0,51.0,30.18,WSW,244,2.0,12.0,56,0.00,,,0.00,,2013-09-09 16:43:00,
2013-09-09 12:54:00,67.0,51.0,30.18,WSW,244,2.0,12.0,56,0.00,,,0.00,,2013-09-09 16:54:00,
2013-09-09 13:10:00,71.0,45.0,30.16,South,182,1.0,7.0,40,0.00,,,0.00,,2013-09-09 17:10:00,
2013-09-09 13:23:00,72.0,49.0,30.17,NW,304,2.0,5.0,44,0.00,,,0.00,,2013-09-09 17:23:00,
2013-09-09 13:53:00,71.0,45.0,30.16,South,182,1.0,7.0,40,0.00,,,0.00,,2013-09-09 17:53:00,
2013-09-09 14:02:00,71.0,45.0,30.16,South,182,1.0,7.0,40,0.00,,,0.00,,2013-09-09 18:02:00,
2013-09-09 14:22:00,68.0,52.0,30.15,WSW,257,1.0,6.0,56,0.00,,,0.00,,2013-09-09 18:22:00,
2013-09-09 14:52:00,67.0,48.0,30.14,West,260,2.0,9.0,50,0.00,,,0.00,,2013-09-09 18:52:00,
2013-09-09 15:12:00,68.0,50.0,30.14,SW,234,2.0,7.0,52,0.00,,,0.00,,2013-09-09 19:12:00,
2013-09-09 15:22:00,68.0,50.0,30.14,SW,234,2.0,7.0,52,0.00,,,0.00,,2013-09-09 19:22:00,
2013-09-09 15:32:00,68.0,50.0,30.14,SW,234,2.0,7.0,52,0.00,,,0.00,,2013-09-09 19:32:00,
2013-09-09 15:43:00,68.0,50.0,30.14,SW,234,2.0,7.0,52,0.00,,,0.00,,2013-09-09 19:43:00,
2013-09-09 15:52:00,68.0,54.0,30.14,WSW,258,1.0,6.0,61,0.00,,,0.00,,2013-09-09 19:52:00,
2013-09-09 16:12:00,68.0,51.0,30.14,SW,224,1.0,5.0,54,0.00,,,0.00,,2013-09-09 20:12:00,
2013-09-09 16:22:00,68.0,51.0,30.14,SW,224,1.0,5.0,54,0.00,,,0.00,,2013-09-09 20:22:00,
2013-09-09 16:42:00,69.0,52.0,30.13,SW,231,2.0,11.0,55,0.00,,,0.00,,2013-09-09 20:42:00,
2013-09-09 16:53:00,69.0,52.0,30.13,SW,231,2.0,11.0,55,0.00,,,0.00,,2013-09-09 20:53:00,
2013-09-09 17:12:00,66.0,50.0,30.12,West,261,1.0,8.0,56,0.00,,,0.00,,2013-09-09 21:12:00,
2013-09-09 17:22:00,66.0,50.0,30.12,West,261,1.0,8.0,56,0.00,,,0.00,,2013-09-09 21:22:00,
2013-09-09 17:44:00,66.0,52.0,30.12,SW,223,1.0,7.0,60,0.00,,,0.00,,2013-09-09 21:44:00,
2013-09-09 17:54:00,66.0,49.0,30.12,WSW,240,1.0,6.0,55,0.00,,,0.00,,2013-09-09 21:54:00,
2013-09-09 18:13:00,66.0,49.0,30.12,WSW,248,1.0,6.0,54,0.00,,,0.00,,2013-09-09 22:13:00,
2013-09-09 18:24:00,66.0,51.0,30.12,WSW,252,1.0,4.0,59,0.00,,,0.00,,2013-09-09 22:24:00,
2013-09-09 18:34:00,66.0,51.0,30.12,WSW,252,1.0,4.0,59,0.00,,,0.00,,2013-09-09 22:34:00,
2013-09-09 18:43:00,66.0,51.0,30.12,WSW,252,1.0,4.0,59,0.00,,,0.00,,2013-09-09 22:43:00,
2013-09-09 18:54:00,63.0,49.0,30.12,West,278,0.0,3.0,60,0.00,,,0.00,,2013-09-09 22:54:00,
2013-09-09 19:03:00,63.0,49.0,30.12,West,278,0.0,3.0,60,0.00,,,0.00,,2013-09-09 23:03:00,
2013-09-09 19:12:00,63.0,49.0,30.12,West,278,0.0,3.0,60,0.00,,,0.00,,2013-09-09 23:12:00,
2013-09-09 19:22:00,61.0,52.0,30.12,South,177,0.0,2.0,72,0.00,,,0.00,,2013-09-09 23:22:00,
2013-09-09 19:52:00,59.0,52.0,30.11,SW,223,0.0,1.0,77,0.00,,,0.00,,2013-09-09 23:52:00,
2013-09-09 20:12:00,57.0,50.0,30.11,North,0,0.0,0.0,78,0.00,,,0.00,,2013-09-10 00:12:00,
2013-09-09 20:22:00,57.0,51.0,30.12,North,0,0.0,0.0,81,0.00,,,0.00,,2013-09-10 00:22:00,
2013-09-09 20:42:00,56.0,51.0,30.12,North,0,0.0,0.0,82,0.00,,,0.00,,2013-09-10 00:42:00,
2013-09-09 20:52:00,56.0,51.0,30.12,North,0,0.0,0.0,82,0.00,,,0.00,,2013-09-10 00:52:00,
2013-09-09 21:11:00,56.0,51.0,30.13,SE,140,0.0,3.0,84,0.00,,,0.00,,2013-09-10 01:11:00,
2013-09-09 21:21:00,56.0,51.0,30.12,SE,135,0.0,3.0,84,0.00,,,0.00,,2013-09-10 01:21:00,
2013-09-09 21:42:00,56.0,51.0,30.13,SE,137,0.0,1.0,84,0.00,,,0.00,,2013-09-10 01:42:00,
2013-09-09 21:52:00,56.0,51.0,30.13,SE,137,0.0,1.0,84,0.00,,,0.00,,2013-09-10 01:52:00,
2013-09-09 22:12:00,56.0,51.0,30.13,South,183,0.0,2.0,83,0.00,,,0.00,,2013-09-10 02:12:00,
2013-09-09 22:22:00,56.0,51.0,30.13,SSW,203,0.0,3.0,82,0.00,,,0.00,,2013-09-10 02:22:00,
2013-09-09 22:42:00,56.0,50.0,30.13,SSW,213,0.0,4.0,81,0.00,,,0.00,,2013-09-10 02:42:00,
2013-09-09 22:52:00,56.0,50.0,30.12,SSE,155,0.0,2.0,80,0.00,,,0.00,,2013-09-10 02:52:00,
2013-09-09 23:12:00,57.0,51.0,30.12,SSE,156,0.0,3.0,81,0.00,,,0.00,,2013-09-10 03:12:00,
2013-09-09 23:22:00,57.0,51.0,30.12,SSE,156,0.0,3.0,81,0.00,,,0.00,,2013-09-10 03:22:00,
2013-09-09 23:54:00,57.0,52.0,30.13,South,177,0.0,3.0,82,0.00,,,0.00,,2013-09-10 03:54:00,